Location: Tabor
(49.4170°N, 14.6670°E)
Time: 09:44:32
(UTC+02:00)

ISS - Pass Details

Date: 25 May 2021
Orbit: 417 x 422 km, 51.6° (Epoch: 13 June)

Event Time Altitude Azimuth Distance (km) Brightness Sun altitude
Rises 23:49:03 0° 288° (WNW) 2,368 0.6 -17.8°
Reaches altitude 10° 23:51:18 10° 277° (W) 1,502 -0.7 -17.9°
Enters shadow 23:53:41 27° 235° (SW) 835 -2.5 -18.0°
